www.pogodaiklimat.ru

Погода и климат >> Архив погоды >> Россия >> Курганская область >> Шадринск


АРХИВ ПОГОДЫ в Шадринске

Время (UTC), дата Ветер
(напр.,м/с)
 
Видим.   Явления Облачность Т
(С)
Тd
(С)
f
(%)
Тe
(С)
Тes
(С)
Комфортность P
(гПа)
Po
(гПа)
Тmin
(С)
Tmax
(С)
R
(мм)
R24
(мм)
S
(см)
09 18.05 СЗ 3 10 км в посл. час ливневой дождь 9/9 600 м
[Cb cap]
+10.6 +3.8 63 +9 +10 1002.9 992.2
12 18.05 З 4
{11}
10 км {ливн. осадки} 8/8 600 м
[Cb cap Ci sp]
+12.1 +1.6 49 +10 +11 1001.8 991.2
15 18.05 З 3 10 км 6/4 600 м
[Cb cap Ci sp]
+10.8 +2.4 56 +9 +9 1001.3 990.7 +12.8 0.8
18 18.05 С 1 10 км в посл. час ливневой дождь 9/9 600 м
[Cb cap]
+6.5 +3.2 79 +6 +6 1001.3 990.5
21 18.05 ЮЗ 1 10 км 8/8 600 м
[Cb cap]
+5.2 +3.6 89 +4 +4 999.9 989.1
00 19.05 ЮЗ 1 10 км {ливн. осадки} 10/10 600 м
[Cb cap]
+4.5 +3.0 90 +3 +3 999.2 988.3
03 19.05 З 3 10 км 10/10 600 м
[Cb cap]
+5.4 +3.1 85 +2 +2 998.8 988.0 +4.0 1
06 19.05 З 5 10 км слаб. ливневой дождь 10/10 600 м
[Cb cap]
+4.9 +2.4 84 0 0 999.3 988.4
09 19.05 З 3 10 км слаб. ливневой дождь 10/10 300 м
[Cb cap]
+5.1 +2.7 84 +2 +2 1000.5 989.6
12 19.05 СЗ 2 10 км в посл. час ливневой дождь 10/10 300 м
[Cb cap]
+5.2 +2.8 84 +3 +3 1002.1 991.2
15 19.05 З 3 10 км {ливн. осадки} 10/10 600 м
[Cb cap]
+6.1 +2.2 76 +3 +3 1003.1 992.2 +7.0 7
18 19.05 З 2 10 км {ливн. осадки} 9/9 600 м
[Cb cap]
+4.7 +1.4 79 +2 +2 1003.9 993.0
21 19.05 З 1 10 км 9/9 600 м
[Cb cap]
+3.4 +0.4 81 +2 +2 1004.4 993.5
00 20.05 З 1 10 км 9/9 600 м
[Cb cap]
+2.9 +0.5 84 +1 +1 1005.1 994.1
03 20.05 З 2 10 км 8/8 600 м
[Cb cap Ci sp]
+5.3 +1.6 77 +3 +4 1005.0 994.1 +2.6
06 20.05 З 3 10 км 8/8 600 м
[Cb cap]
+9.8 +1.2 55 +8 +10 1004.5 993.8
09 20.05 СЗ 4 10 км 9/9 600 м
[Cb cap]
+11.0 -1.1 43 +9 +10 1004.4 993.7
12 20.05 З 3
{10}
10 км 10/10 600 м
[Cb cap]
+9.1 -0.1 53 +7 +7 1005.4 994.6
15 20.05 З 2 10 км 10/8 600 м
[Cb cap Ci sp]
+7.5 +1.2 64 +6 +6 1005.9 995.1 +11.5
18 20.05 З 2 10 км 6/6 600 м
[Cb cap]
+4.3 +0.9 79 +2 +2 1006.6 995.7
21 20.05 З 2 10 км 4/4 600 м
[Sc]
+2.3 +0.1 85 -1 -1 1006.8 995.7
00 21.05 З 1 10 км 4/4 600 м
[Sc]
+1.1 -0.4 90 -1 -1 1007.3 996.2
03 21.05 З 3 10 км 10/10 600 м
[Cb cap]
+5.1 +2.1 81 +2 +2 1007.6 996.7 +1.1
06 21.05 З 3 10 км {ливн. осадки} 9/9 600 м
[Cb cap]
+8.1 +2.1 66 +6 +7 1007.2 996.4
09 21.05 СЗ 3 10 км в посл. час ливневой дождь 10/9 600 м
[Cb cap Ci sp]
+6.7 +2.5 75 +4 +5 1008.4 997.5
12 21.05 СЗ 4
{12}
10 км в посл. час ливневой дождь 9/8 600 м
[Cb cap Ac trans Ci sp]
+7.9 -0.2 57 +5 +6 1009.8 998.9
15 21.05 СЗ 2
{10}
10 км 10/9 600 м
[Cb cap Ci sp]
+6.8 +0.7 65 +5 +5 1011.2 1000.2 +9.1 3
18 21.05 СЗ 1 10 км 10/10 600 м
[Cb cap]
+5.3 +0.5 71 +4 +4 1012.4 1001.4
21 21.05 Ю 1 10 км 8/6 600 м
[Cb cap Ac trans Ci sp]
+2.8 +0.4 84 +1 +1 1012.7 1001.6
00 22.05 З 1 10 км 10/8 600 м
[Cb cap Ci sp]
+3.4 +1.0 84 +2 +2 1012.9 1001.8
03 22.05 З 2 10 км 9/9 600 м
[Cb cap]
+5.1 +1.3 76 +3 +3 1013.2 1002.2 +2.6
06 22.05 СЗ 3 10 км 10/10 600 м
[Cb cap]
+7.1 +0.7 64 +4 +4 1013.5 1002.6
09 22.05 З 3 10 км 8/6 600 м
[Cb cap Ci sp]
+10.8 +0.6 49 +9 +13 1013.0 1002.2
12 22.05 З 3 10 км {ливн. осадки} 10/10 600 м
[Cb cap]
+12.2 -0.5 41 +11 +11 1012.7 1002.0
15 22.05 З 1 10 км 4/4 600 м
[Cb cap]
+12.1 -0.2 43 +12 +13 1012.8 1002.1 +12.8
18 22.05 ЮЗ 1 10 км 4/4 600 м
[Cb cap]
+5.4 +0.7 72 +4 +4 1013.5 1002.5
21 22.05 ЮЗ 2 10 км 10/10 600 м
[Cb cap]
+7.1 +0.9 65 +5 +5 1012.9 1002.0
00 23.05 С 1 10 км 10/10 600 м
[Cb cap]
+6.7 +1.1 67 +6 +6 1012.2 1001.3
03 23.05 ЮЗ 3 10 км 8/4 600 м
[Cb cap Ac trans Ci sp]
+11.2 +1.3 50 +10 +11 1011.5 1000.8 +5.0
06 23.05 ЮЗ 3 10 км 8/8 600 м
[Cb cap Ci sp]
+17.1 -4.4 23 +17 +19 1010.1 999.6
09 23.05 ЮЗ 5
{10}
10 км 9/6 600 м
[Cu med, cong Ci sp]
+18.8 -4.8 20 +18 +21 1008.2 997.8
12 23.05 ЮЗ 4
{11}
10 км 9/6 600 м
[Cb cap Ci sp]
+19.3 -4.0 20 +19 +21 1005.8 995.4
15 23.05 ЮЗ 3 10 км 9/9 600 м
[Cb cap]
+18.7 +0.4 29 +19 +19 1002.9 992.5 +19.9
18 23.05 ЮЗ 4 10 км 9/8 600 м
[Cb cap Ci sp]
+14.8 +6.3 57 +14 +14 1001.8 991.3
21 23.05 ЮЗ 5 10 км в посл. час ливневой дождь 10/10 600 м
[Cb cap]
+14.2 +8.5 69 +13 +13 1000.3 989.8
00 24.05 Ю 6-10
{11}
10 км {ливн. осадки} 8/8 600 м
[Cb cap]
+13.2 +8.2 72 +11 +11 997.9 987.4
03 24.05 ЮЗ 5
{12}
10 км 10/10 600 м
[Cb cap]
+15.6 +6.7 55 +15 +15 997.8 987.4 +12.8
06 24.05 ЮЗ 4
{11}
10 км слаб. ливневой дождь 10/10 600 м
[Cb cap]
+13.2 +8.9 75 +12 +12 999.1 988.6
09 24.05 С 3 10 км слаб. дождь 10/10 300 м
[Frnb Ns]
+9.6 +8.0 90 +7 +7 999.9 989.3
12 24.05 С 3 10 км слаб. дождь 10/10 300 м
[Frnb Ns]
+7.9 +6.5 91 +5 +5 1002.0 991.2
15 24.05 С 3 10 км слаб. дождь 10/10 300 м
[Frnb Ns]
+5.4 +3.7 89 +2 +2 1003.7 992.8 +16.7 21
18 24.05 СЗ 1 10 км в посл. час дождь 10/10 300 м
[Frnb Ns]
+4.4 +2.8 89 +3 +3 1005.7 994.7
21 24.05 СЗ 2 10 км 10/10 600 м
[Cb cap]
+4.5 +3.0 90 +2 +2 1007.0 996.0
00 25.05 З 2 10 км 4/3 600 м
[Sc Ci sp]
+1.5 -0.1 89 -2 -2 1009.2 998.1
03 25.05 СЗ 4 10 км 8/8 600 м
[Sc]
+4.4 -0.9 68 0 +1 1011.7 1000.7 +1.5 4
06 25.05 СЗ 4 10 км 8/8 600 м
[Cb cap]
+7.1 -2.2 52 +4 +6 1013.0 1002.1

 

Местоположение метеостанции Шадринск (Курганская область, Россия): широта 56.07 долгота 63.65 высота над уровнем моря 89 м.

В архиве по умолчанию представлена погода в Шадринске за последнюю неделю. Архивные данные за месяц целиком и за предыдущие месяцы, начиная с января 2011 года, Вы можете получить, выбрав интересующий диапазон дат из раскрывающегося списка и нажав кнопку "Ввод!".


*Определитесь, кто Вы:
робот инопланетянин человек

Внимание! Время в таблицах - всемирное. Для получения местного времени необходимо прибавить поправку, которая равна 5 ч.

Смотрите также архив погоды в соседних городах и на ближайших метеорологических станциях:

Погода в Далматово (Курганская область, Россия) (50 км)
Погода в Бутке (Свердловская область, Россия) (73 км)
Погода в Шатрово (Курганская область, Россия) (79 км)
Погода в Шумихе (Курганская область, Россия) (96 км)
Погода в Камышлове (Свердловская область, Россия) (104 км)
Погода в Бродокалмаке (Челябинская область, Россия) (113 км)
Погода в Исетском (Тюменская область, Россия) (113 км)
Погода в Каменск-Уральском (Свердловская область, Россия) (117 км)
Погода в Памятном (Курганская область, Россия) (127 км)
Погода в Тугулыме (Свердловская область, Россия) (128 км)

Пояснения к столбцам:

Ветер - указаны скорость ветра в м/с - средняя за 10 мин, порывы в срок и между сроками (в фигурных скобках) и направление, откуда дует ветер: С - северный, СВ - северо-восточный, В - восточный, ЮВ - юго-восточный, Ю - южный, ЮЗ - юго-западный, З - западный, СЗ - северо-западный.
Видимость - горизонтальная дальность видимости в метрах или километрах. При видимости от 1 до 10 км при отсутствии осадков обычно наблюдается дымка, при ухудшении видимости до 1 км и менее - туман. В сухую погоду видимость может ухудшаться дымом, пылью или мглою.
Явления - указаны атмосферные явления, наблюдавшиеся в срок или в последний час перед сроком; фигурными скобками обозначены явления, наблюдавшиеся между сроками (за 1-3 часа до срока); квадратными скобками обозначены град или гололедные отложения с указанием их диаметра в мм.
Облачность - указаны через наклонную черту общая и нижняя облачность в баллах и высота нижней границы облаков в метрах; квадратными скобками обозначены формы облаков: Ci - перистые, Cs - перисто-слоистые, Cc - перисто-кучевые, Ac - высококучевые, As - высокослоистые, Sc - слоисто-кучевые, Ns - слоисто-дождевые, Cu - кучевые, Cb - кучево-дождевые. Подробнее классификацию облаков см. в Атласе облаков (PDF).
T - Температура воздуха - температура, измеренная на высоте 2 м над землей.
Td - Температура точки росы - температура, при понижении до которой содержащийся в воздухе водяной пар достигнет насыщения.
f - Относительная влажность воздуха - влажноcть воздуха, измеренная на высоте 2 м над землей.
Te - Эффективная температура - температура, которую ощущает одетый по сезону человек в тени. Характеристика душности погоды. При расчете учитывается влияние влажности воздуха и скорости ветра на теплоощущения человека.
Tes - Эффективная температура на солнце - температура, которую ощущает человек, с поправкой на солнечный нагрев. Характеристика знойности погоды. Зависит от высоты солнца над горизонтом, облачности и скорости ветра. Ночью, в пасмурную погоду, а также при ветре 12 м/с и более поправка равна нулю.
P - Атмосферное давление - приведенное к уровню моря атмосферное давление.
Po - Атмосферное давление - измеренное на уровне метеостанции атмосферное давление.
Tmin - Минимальная температура - минимум температуры воздуха на высоте 2 м над землей.
Tmax - Максимальная температура - максимум температуры воздуха на высоте 2 м над землей.
R - Количество осадков - Количество выпавших осадков за период времени, мм. При наведении курсора мыши на число - период времени, за который выпало указанное количество осадков.
R24 - Количество осадков - Количество выпавших осадков за 24 часа, мм.
S - Снежный покров - Высота снежного покрова, см. При наведении курсора мыши на число - состояние снежного покрова и степень покрытия местности в баллах.